{"data":{"norad_id":63832,"intl_designator":"2025-092AE","name":"STARLINK-33978","alt_names":[],"object_type":"PAYLOAD","status":"ACTIVE","operator":null,"country":"US","launch_date":"2025-05-04","launch_site_code":"AFETR","launch_vehicle":null,"mission":null,"orbit_class":"UNKNOWN","rcs_meters":null,"size_class":null,"mass_kg":null,"dimensions":null,"purposes":["comms"],"wikipedia_slug":null,"has_3d_model":false,"image_url":null,"decayed_at":null,"tle_current":{"epoch":"2026-05-25T04:09:53.186400Z","epoch_age_seconds":53974,"freshness":"FRESH","line1":"1 63832U 25092AE  26145.17353225  .00022401  00000+0  82089-3 0  9994","line2":"2 63832  43.0004 100.4514 0000880 262.4658  97.6094 15.27588790 60361","mean_motion":15.2758879,"eccentricity":8.8e-5,"inclination_deg":43.0004,"raan_deg":100.4514,"arg_perigee_deg":262.4658,"mean_anomaly_deg":97.6094,"bstar":0.00082089,"rev_number":6036,"period_min":94.266206287099,"perigee_km":482.41899368341,"apogee_km":483.62655780394,"semimajor_km":6861.1597757437,"source":"CELESTRAK","updated_at":"2026-05-25T13:38:20.145562Z"}}}